Weather History for PAIK - June, 2013

Change the Weather History Date:

Saturday, June 22, 2013

  Actual Average (PASK) Record (PASK)
Temperature  
Mean Temperature 60 °F -  
Max Temperature 59 °F 59 °F 71 °F (2001)
Min Temperature 53 °F 45 °F 39 °F (2002)
Degree Days  
Heating Degree Days 6    
Growing Degree Days 10 (Base 50)    
Moisture  
Dew Point 47 °F    
Average Humidity 62    
Maximum Humidity 86    
Minimum Humidity 43    
Precipitation  
Precipitation 0.00 in - - ()
Sea Level Pressure  
Sea Level Pressure 29.89 in    
Wind  
Wind Speed 5 mph (SSE)    
Max Wind Speed 9 mph    
Max Gust Speed -    
Visibility 10 miles    
Events      
Averages and records for this station are not official NWS values.
T = Trace of Precipitation, MM = Missing Value Source: NWS Daily Summary

Daily Weather History Graph

Daily Weather History Graph

Search for Another Location

Airport or City:

Trip Planner

Search our weather history database for the weather conditions in past years. The results will help you decide how hot, cold, wet, or windy it might be!

Date:

Astronomy

Jun. 22, 2013 Rise Set
Actual Time 3:16 AM AKDT 2:11 AM AKDT
Civil Twilight Sun does not set Sun does not set
Nautical Twilight Sun does not set Sun does not set
Astronomical Twilight Sun does not set Sun does not set
Moon No Moon Rise 3:41 AM AKDT (6/22)
Length of Visible Light 24h 00m
Length of Day
22h 55m
Waxing Gibbous, 99% of the Moon is Illuminated
Jun 22
Waxing Gibbous
Jun 23
Full
Jun 29
Last Quarter
Jul 7
New
Jul 15
First Quarter

Hourly Weather History & Observations

Time (AKDT) Temp. Dew Point Humidity Pressure Visibility Wind Dir Wind Speed Gust Speed Precip Events Conditions
12:01 AM 59.0 °F 45.0 °F 60% 29.92 in 10.0 mi WSW 9.2 mph - N/A   Overcast
1:01 AM 57.0 °F 46.9 °F 69% 29.93 in 10.0 mi WSW 5.8 mph - N/A   Overcast
2:01 AM 55.0 °F 48.9 °F 80% 29.92 in 10.0 mi SSW 6.9 mph - N/A   Clear
3:01 AM 55.0 °F 50.0 °F 83% 29.92 in 10.0 mi SSW 5.8 mph - N/A   Overcast
4:01 AM 55.0 °F 46.9 °F 74% 29.91 in 10.0 mi West 4.6 mph - N/A   Overcast
5:01 AM 54.0 °F 46.9 °F 77% 29.91 in 10.0 mi Calm Calm - N/A   Overcast
6:01 AM 53.1 °F 48.9 °F 86% 29.91 in 10.0 mi Calm Calm - N/A   Mostly Cloudy
7:01 AM 55.0 °F 48.0 °F 77% 29.91 in 10.0 mi SE 4.6 mph - N/A   Partly Cloudy
8:01 AM 57.0 °F 48.0 °F 72% 29.91 in 10.0 mi SE 3.5 mph - N/A   Clear
9:01 AM 57.9 °F 46.9 °F 67% 29.91 in 10.0 mi SSE 3.5 mph - N/A   Scattered Clouds
10:01 AM 59.0 °F 48.0 °F 67% 29.90 in 10.0 mi ESE 5.8 mph - N/A   Overcast
11:01 AM 60.1 °F 46.9 °F 62% 29.90 in 10.0 mi Calm Calm - N/A   Overcast
12:01 PM 61.0 °F 48.0 °F 62% 29.90 in 10.0 mi SSW 8.1 mph - N/A   Partly Cloudy
1:01 PM 62.1 °F 48.0 °F 60% 29.89 in 10.0 mi SSE 6.9 mph - N/A   Scattered Clouds
2:01 PM 63.0 °F 48.0 °F 58% 29.88 in 10.0 mi WSW 8.1 mph - N/A   Mostly Cloudy
3:01 PM 62.1 °F 46.9 °F 58% 29.88 in 10.0 mi Calm Calm - N/A   Overcast
4:01 PM 63.0 °F 46.9 °F 56% 29.87 in 10.0 mi Calm Calm - N/A   Overcast
5:01 PM 64.9 °F 44.1 °F 47% 29.86 in 10.0 mi Variable 4.6 mph - N/A   Mostly Cloudy
6:01 PM 64.0 °F 43.0 °F 46% 29.86 in 10.0 mi NE 3.5 mph - N/A   Scattered Clouds
7:01 PM 64.9 °F 43.0 °F 45% 29.85 in 10.0 mi East 5.8 mph - N/A   Overcast
8:01 PM 66.0 °F 43.0 °F 43% 29.85 in 10.0 mi East 6.9 mph - N/A   Mostly Cloudy
9:01 PM 66.0 °F 44.1 °F 45% 29.84 in 9.0 mi East 4.6 mph - N/A   Mostly Cloudy
10:01 PM 66.0 °F 44.1 °F 45% 29.85 in 10.0 mi ENE 4.6 mph - N/A   Mostly Cloudy
11:01 PM 64.0 °F 46.0 °F 52% 29.85 in 10.0 mi East 3.5 mph - N/A   Overcast